{"data":{"norad_id":63259,"intl_designator":"2025-052BB","name":"LEMUR-2-DELOITTE-1","alt_names":[],"object_type":"PAYLOAD","status":"ACTIVE","operator":null,"country":"US","launch_date":"2025-03-15","launch_site_code":"AFWTR","launch_vehicle":null,"mission":null,"orbit_class":"UNKNOWN","rcs_meters":null,"size_class":null,"mass_kg":null,"dimensions":null,"purposes":["earth_obs"],"wikipedia_slug":null,"has_3d_model":false,"image_url":null,"decayed_at":null,"tle_current":{"epoch":"2026-09-19T23:26:58.478208Z","epoch_age_seconds":59529,"freshness":"FRESH","line1":"1 63259U 25052BB  26262.97706572  .00002666  00000+0  22986-3 0  9999","line2":"2 63259  97.6766 154.2477 0002804 115.4115 244.7398 14.98145029 82886","mean_motion":14.98145029,"eccentricity":0.0002804,"inclination_deg":97.6766,"raan_deg":154.2477,"arg_perigee_deg":115.4115,"mean_anomaly_deg":244.7398,"bstar":0.00022986,"rev_number":8288,"period_min":96.118865138256,"perigee_km":570.67896286198,"apogee_km":574.57695185007,"semimajor_km":6950.764957356,"source":"CELESTRAK","updated_at":"2026-09-20T09:00:34.874527Z"}}}